| time (UTC) | temp F | wind direction | speed MPH | gust MPH | rain 1hr in | rain 24hr in | rain mn in | humidity % | barometer mb |
| 20260904003052 | 78 | 254 | 0.0 | 1.0 | 0.00 | 0.00 | 0.00 | 1 | 1012.3 |
| 20260904001550 | 78 | 254 | 0.0 | 0.0 | 0.00 | 0.00 | 0.00 | 1 | 1012.0 |
| 20260904000053 | 79 | 254 | 0.0 | 0.0 | 0.00 | 0.00 | 0.00 | 1 | 1012.4 |
| 20260903234540 | 79 | 255 | 0.0 | 2.0 | 0.00 | 0.00 | 0.00 | 1 | 1012.2 |
| 20260903233036 | 81 | 261 | 0.0 | 0.0 | 0.00 | 0.00 | 0.00 | 1 | 1011.9 |
| 20260903231532 | 82 | 261 | 0.0 | 0.0 | 0.00 | 0.00 | 0.00 | 1 | 1011.8 |
| 20260903230027 | 83 | 249 | 0.0 | 1.0 | 0.00 | 0.00 | 0.00 | 4 | 1011.9 |
| 20260903224523 | 84 | 245 | 0.0 | 1.0 | 0.00 | 0.00 | 0.00 | 11 | 1011.9 |
| 20260903223027 | 85 | 229 | 0.0 | 1.0 | 0.00 | 0.00 | 0.00 | 12 | 1011.9 |
| 20260903221514 | 86 | 258 | 0.0 | 2.0 | 0.00 | 0.00 | 0.00 | 18 | 1012.1 |
| 20260903220010 | 88 | 271 | 0.0 | 3.0 | 0.00 | 0.00 | 0.00 | 20 | 1012.0 |
| 20260903214509 | 87 | 270 | 0.0 | 1.0 | 0.00 | 0.00 | 0.00 | 21 | 1011.8 |
| 20260903213000 | 88 | 266 | 2.0 | 5.0 | 0.00 | 0.00 | 0.00 | 22 | 1011.8 |
| 20260903211557 | 88 | 283 | 0.0 | 6.0 | 0.00 | 0.00 | 0.00 | 20 | 1011.9 |
| 20260903210107 | 88 | 18 | 0.0 | 3.0 | 0.00 | 0.00 | 0.00 | 20 | 1011.9 |
| 20260903204604 | 88 | 292 | 0.0 | 5.0 | 0.00 | 0.00 | 0.00 | 18 | 1012.1 |
| 20260903203044 | 87 | 285 | 0.0 | 6.0 | 0.00 | 0.00 | 0.00 | 19 | 1011.9 |
| 20260903201539 | 87 | 286 | 1.0 | 7.0 | 0.00 | 0.00 | 0.00 | 19 | 1012.0 |
| 20260903200038 | 88 | 262 | 1.0 | 6.0 | 0.00 | 0.00 | 0.00 | 19 | 1012.0 |
| 20260903194530 | 87 | 290 | 0.0 | 6.0 | 0.00 | 0.00 | 0.00 | 16 | 1012.1 |
| 20260903193026 | 87 | 238 | 2.0 | 6.0 | 0.00 | 0.00 | 0.00 | 16 | 1012.2 |
| 20260903191521 | 87 | 11 | 1.0 | 5.0 | 0.00 | 0.00 | 0.00 | 13 | 1012.3 |
| 20260903190017 | 86 | 286 | 2.0 | 5.0 | 0.00 | 0.00 | 0.00 | 11 | 1012.6 |
| 20260903184513 | 86 | 30 | 0.0 | 7.0 | 0.00 | 0.00 | 0.00 | 7 | 1012.8 |
| 20260903183008 | 85 | 288 | 2.0 | 7.0 | 0.00 | 0.00 | 0.00 | 6 | 1013.1 |
| 20260903181503 | 85 | 264 | 3.0 | 8.0 | 0.00 | 0.00 | 0.00 | 4 | 1013.1 |
| 20260903180101 | 85 | 262 | 1.0 | 5.0 | 0.00 | 0.00 | 0.00 | 2 | 1013.2 |
| 20260903174555 | 85 | 263 | 0.0 | 5.0 | 0.00 | 0.00 | 0.00 | 1 | 1013.2 |
| 20260903173050 | 84 | 259 | 3.0 | 6.0 | 0.00 | 0.00 | 0.00 | 1 | 1013.5 |
| 20260903171554 | 83 | 13 | 1.0 | 8.0 | 0.00 | 0.00 | 0.00 | 1 | 1013.9 |
| 20260903170042 | 82 | 173 | 1.0 | 5.0 | 0.00 | 0.00 | 0.00 | 1 | 1013.9 |
| 20260903164543 | 81 | 263 | 1.0 | 6.0 | 0.00 | 0.00 | 0.00 | 1 | 1014.2 |
| 20260903163033 | 80 | 288 | 1.0 | 6.0 | 0.00 | 0.00 | 0.00 | 1 | 1014.3 |
| 20260903161533 | 79 | 296 | 1.0 | 8.0 | 0.00 | 0.00 | 0.00 | 1 | 1014.4 |
| 20260903160050 | 79 | 290 | 2.0 | 6.0 | 0.00 | 0.00 | 0.00 | 1 | 1014.7 |
| 20260903154520 | 78 | 294 | 2.0 | 6.0 | 0.00 | 0.00 | 0.00 | 1 | 1014.9 |
| 20260903153018 | 77 | 248 | 0.0 | 6.0 | 0.00 | 0.00 | 0.00 | 1 | 1015.1 |
| 20260903151511 | 76 | 212 | 2.0 | 9.0 | 0.00 | 0.00 | 0.00 | 1 | 1015.3 |
| 20260903150021 | 76 | 248 | 0.0 | 4.0 | 0.00 | 0.00 | 0.00 | 1 | 1015.3 |
| 20260903144502 | 75 | 241 | 2.0 | 7.0 | 0.00 | 0.00 | 0.00 | 1 | 1015.0 |
| 20260903143101 | 74 | 241 | 1.0 | 5.0 | 0.00 | 0.00 | 0.00 | 1 | 1015.2 |
| 20260903141554 | 73 | 208 | 1.0 | 8.0 | 0.00 | 0.00 | 0.00 | 1 | 1015.1 |
| 20260903140053 | 72 | 75 | 0.0 | 7.0 | 0.00 | 0.00 | 0.00 | 1 | 1015.1 |
| 20260903134545 | 71 | 279 | 2.0 | 6.0 | 0.00 | 0.00 | 0.00 | 1 | 1015.1 |
| 20260903133040 | 71 | 110 | 0.0 | 2.0 | 0.00 | 0.00 | 0.00 | 1 | 1015.4 |
| 20260903131536 | 70 | 136 | 0.0 | 4.0 | 0.00 | 0.00 | 0.00 | 1 | 1015.3 |
| 20260903130035 | 70 | 238 | 0.0 | 2.0 | 0.00 | 0.00 | 0.00 | 1 | 1015.1 |
| 20260903124527 | 69 | 176 | 0.0 | 1.0 | 0.00 | 0.00 | 0.00 | 1 | 1015.1 |
| 20260903123023 | 69 | 50 | 0.0 | 1.0 | 0.00 | 0.00 | 0.00 | 1 | 1015.1 |
| 20260903121518 | 68 | 11 | 0.0 | 5.0 | 0.00 | 0.00 | 0.00 | 1 | 1015.1 |
| 20260903120014 | 68 | 278 | 0.0 | 3.0 | 0.00 | 0.00 | 0.00 | 1 | 1014.7 |
| 20260903114510 | 67 | 186 | 0.0 | 2.0 | 0.00 | 0.00 | 0.00 | 1 | 1014.8 |
| 20260903113007 | 67 | 159 | 0.0 | 1.0 | 0.00 | 0.00 | 0.00 | 1 | 1015.2 |
| 20260903111501 | 67 | 272 | 0.0 | 2.0 | 0.00 | 0.00 | 0.00 | 1 | 1015.3 |
| 20260903110057 | 67 | 246 | 0.0 | 3.0 | 0.00 | 0.00 | 0.00 | 1 | 1015.5 |
| 20260903104553 | 67 | 286 | 0.0 | 2.0 | 0.00 | 0.00 | 0.00 | 1 | 1015.6 |
| 20260903103048 | 67 | 255 | 0.0 | 1.0 | 0.00 | 0.00 | 0.00 | 1 | 1015.6 |
| 20260903101547 | 67 | 281 | 0.0 | 2.0 | 0.00 | 0.00 | 0.00 | 1 | 1015.4 |
| 20260903100039 | 67 | 229 | 0.0 | 1.0 | 0.00 | 0.00 | 0.00 | 1 | 1015.4 |
| 20260903094537 | 68 | 290 | 0.0 | 1.0 | 0.00 | 0.00 | 0.00 | 1 | 1015.3 |
| 20260903093040 | 68 | 44 | 0.0 | 0.0 | 0.00 | 0.00 | 0.00 | 1 | 1015.2 |
| 20260903091525 | 68 | 45 | 0.0 | 0.0 | 0.00 | 0.00 | 0.00 | 1 | 1015.1 |
| 20260903090030 | 68 | 32 | 1.0 | 3.0 | 0.00 | 0.00 | 0.00 | 1 | 1015.3 |
| 20260903084516 | 68 | 271 | 2.0 | 12.0 | 0.00 | 0.00 | 0.00 | 1 | 1014.7 |
| 20260903083012 | 68 | 245 | 2.0 | 10.0 | 0.00 | 0.00 | 0.00 | 1 | 1014.5 |
| 20260903081507 | 68 | 235 | 1.0 | 7.0 | 0.00 | 0.00 | 0.00 | 1 | 1014.6 |
| 20260903080003 | 68 | 259 | 0.0 | 2.0 | 0.00 | 0.00 | 0.00 | 1 | 1016.6 |
| 20260903074622 | 68 | 264 | 0.0 | 3.0 | 0.00 | 0.00 | 0.00 | 1 | 1016.1 |
| 20260903073107 | 68 | 290 | 0.0 | 3.0 | 0.00 | 0.00 | 0.00 | 1 | 1016.2 |
| 20260903071554 | 67 | 278 | 0.0 | 1.0 | 0.00 | 0.00 | 0.00 | 1 | 1015.7 |
| 20260903070049 | 67 | 289 | 0.0 | 1.0 | 0.00 | 0.00 | 0.00 | 1 | 1015.2 |
| 20260903064545 | 67 | 356 | 0.0 | 1.0 | 0.00 | 0.00 | 0.00 | 1 | 1016.1 |
| 20260903063041 | 67 | 343 | 0.0 | 1.0 | 0.00 | 0.00 | 0.00 | 1 | 1016.7 |
| 20260903061543 | 67 | 343 | 0.0 | 0.0 | 0.00 | 0.00 | 0.00 | 1 | 1017.0 |
| 20260903060033 | 67 | 343 | 0.0 | 0.0 | 0.00 | 0.00 | 0.00 | 1 | 1016.9 |
| 20260903054527 | 67 | 342 | 0.0 | 1.0 | 0.00 | 0.00 | 0.00 | 1 | 1017.3 |
| 20260903053022 | 67 | 339 | 0.0 | 4.0 | 0.00 | 0.00 | 0.00 | 1 | 1017.5 |
| 20260903051517 | 67 | 233 | 0.0 | 2.0 | 0.00 | 0.00 | 0.00 | 1 | 1017.2 |
| 20260903050025 | 67 | 156 | 0.0 | 1.0 | 0.00 | 0.00 | 0.00 | 1 | 1018.5 |
| 20260903044508 | 67 | 264 | 0.0 | 0.0 | 0.00 | 0.00 | 0.00 | 1 | 1019.0 |
| 20260903043006 | 67 | 136 | 0.0 | 0.0 | 0.00 | 0.00 | 0.00 | 1 | 1019.0 |
| 20260903041600 | 67 | 72 | 0.0 | 0.0 | 0.00 | 0.00 | 0.00 | 1 | 1019.4 |
| 20260903040056 | 67 | 72 | 0.0 | 0.0 | 0.00 | 0.00 | 0.00 | 1 | 1018.9 |
| 20260903034555 | 67 | 72 | 0.0 | 0.0 | 0.00 | 0.00 | 0.00 | 1 | 1018.9 |
| 20260903033047 | 67 | 72 | 0.0 | 0.0 | 0.00 | 0.00 | 0.00 | 1 | 1018.3 |
| 20260903031600 | 67 | 72 | 0.0 | 0.0 | 0.00 | 0.00 | 0.00 | 1 | 1018.6 |
| 20260903030044 | 67 | 72 | 0.0 | 0.0 | 0.00 | 0.00 | 0.00 | 1 | 1018.4 |
| 20260903024538 | 67 | 72 | 0.0 | 0.0 | 0.00 | 0.00 | 0.00 | 1 | 1018.6 |
| 20260903023030 | 67 | 72 | 0.0 | 1.0 | 0.00 | 0.00 | 0.00 | 1 | 1018.6 |
| 20260903021525 | 67 | 72 | 0.0 | 0.0 | 0.00 | 0.00 | 0.00 | 1 | 1018.8 |
| 20260903020022 | 67 | 72 | 0.0 | 0.0 | 0.00 | 0.00 | 0.00 | 1 | 1019.1 |
| 20260903014524 | 68 | 72 | 0.0 | 0.0 | 0.00 | 0.00 | 0.00 | 1 | 1018.7 |
| 20260903013031 | 68 | 72 | 0.0 | 0.0 | 0.00 | 0.00 | 0.00 | 1 | 1018.7 |
| 20260903011520 | 68 | 72 | 0.0 | 0.0 | 0.00 | 0.00 | 0.00 | 1 | 1019.1 |
| 20260903010016 | 68 | 37 | 0.0 | 0.0 | 0.00 | 0.00 | 0.00 | 1 | 1019.3 |
| 20260903004516 | 68 | 37 | 0.0 | 0.0 | 0.00 | 0.00 | 0.00 | 1 | 1019.1 |